Location: Nitra
(0.0000°N, 18.0833°E)
Time: 03:58:00
(UTC+01:00)

Timation 1 Rocket - Pass Details

Date: 25 September 2022
Orbit: 900 x 907 km, 70.0° (Epoch: 01 December)

Event Time Altitude Azimuth Distance (km) Brightness Sun altitude
Rises 19:54:32 0° 343° (NNW) 3,502 7.6 -18.8°
Reaches altitude 10° 19:57:01 10° 343° (NNW) 2,565 6.9 -19.4°
Maximum altitude 20:02:58 87° 253° (WSW) 905 4.3 -20.9°
Drops below altitude 10° 20:08:56 10° 165° (SSE) 2,579 6.6 -22.4°
Sets 20:11:26 0° 164° (SSE) 3,523 7.3 -23.0°
